| time (UTC) | temp C | wind direction | speed KPH | gust KPH | rain 1hr cm | rain 24hr cm | rain mn cm | humidity % | barometer mb |
| 20260505130200 | 12 | 24 | 0.0 | 3.2 | 0.00 | 2.01 | 0.71 | 84 | 1015.1 |
| 20260505124747 | 11 | 51 | 0.0 | 3.2 | 0.00 | 2.01 | 0.71 | 83 | 1015.2 |
| 20260505124513 | 11 | 69 | 0.0 | 4.8 | 0.00 | 2.01 | 0.71 | 82 | 1015.1 |
| 20260505124158 | 12 | 74 | 0.0 | 4.8 | 0.00 | 2.01 | 0.71 | 82 | 1015.2 |
| 20260505123741 | 12 | 107 | 0.0 | 4.8 | 0.00 | 2.01 | 0.71 | 81 | 1015.2 |
| 20260505123242 | 12 | 157 | 0.0 | 4.8 | 0.00 | 2.01 | 0.71 | 81 | 1015.2 |
| 20260505123158 | 12 | 160 | 0.0 | 4.8 | 0.00 | 2.01 | 0.71 | 82 | 1015.1 |
| 20260505122739 | 12 | 146 | 0.0 | 4.8 | 0.00 | 2.01 | 0.71 | 81 | 1015.2 |
| 20260505122511 | 12 | 137 | 0.0 | 4.8 | 0.00 | 2.03 | 0.71 | 82 | 1015.3 |
| 20260505122158 | 12 | 136 | 0.0 | 4.8 | 0.00 | 2.03 | 0.71 | 82 | 1015.3 |
| 20260505121739 | 12 | 134 | 0.0 | 4.8 | 0.00 | 2.03 | 0.71 | 82 | 1015.3 |
| 20260505121238 | 11 | 134 | 1.6 | 4.8 | 0.00 | 2.03 | 0.71 | 81 | 1015.2 |
| 20260505121159 | 12 | 132 | 1.6 | 4.8 | 0.00 | 2.03 | 0.71 | 81 | 1015.3 |
| 20260505120738 | 12 | 134 | 0.0 | 4.8 | 0.00 | 2.03 | 0.71 | 83 | 1015.2 |
| 20260505120508 | 11 | 137 | 1.6 | 4.8 | 0.00 | 2.03 | 0.71 | 81 | 1015.2 |
| 20260505120159 | 11 | 142 | 1.6 | 4.8 | 0.00 | 2.03 | 0.71 | 81 | 1015.3 |
| 20260505115737 | 11 | 154 | 1.6 | 4.8 | 0.00 | 2.03 | 0.71 | 81 | 1015.2 |
| 20260505115244 | 11 | 137 | 0.0 | 3.2 | 0.00 | 2.03 | 0.71 | 82 | 1015.2 |
| 20260505115237 | 11 | 150 | 0.0 | 4.8 | 0.00 | 2.03 | 0.71 | 82 | 1015.3 |
| 20260505115231 | 11 | 148 | 0.0 | 3.2 | 0.00 | 2.03 | 0.71 | 82 | 1015.2 |
| 20260505114236 | 11 | 137 | 0.0 | 3.2 | 0.00 | 2.03 | 0.71 | 82 | 1015.5 |
| 20260505114156 | 11 | 136 | 0.0 | 3.2 | 0.00 | 2.03 | 0.71 | 82 | 1015.3 |
| 20260505113744 | 11 | 144 | 0.0 | 3.2 | 0.00 | 2.03 | 0.71 | 81 | 1015.3 |
| 20260505113740 | 11 | 146 | 0.0 | 3.2 | 0.00 | 2.03 | 0.71 | 80 | 1015.3 |
| 20260505113156 | 11 | 150 | 0.0 | 3.2 | 0.00 | 2.03 | 0.71 | 81 | 1015.3 |
| 20260505112736 | 11 | 148 | 0.0 | 3.2 | 0.00 | 2.03 | 0.71 | 81 | 1015.3 |
| 20260505112513 | 11 | 164 | 0.0 | 3.2 | 0.00 | 2.03 | 0.71 | 80 | 1015.3 |
| 20260505112156 | 11 | 160 | 0.0 | 3.2 | 0.00 | 2.03 | 0.71 | 81 | 1015.5 |
| 20260505112009 | 11 | 167 | 0.0 | 3.2 | 0.00 | 2.03 | 0.71 | 80 | 1015.5 |
| 20260505111235 | 11 | 170 | 0.0 | 3.2 | 0.00 | 2.03 | 0.71 | 83 | 1015.6 |
| 20260505111157 | 11 | 173 | 0.0 | 3.2 | 0.00 | 2.03 | 0.71 | 83 | 1015.6 |
| 20260505111003 | 11 | 197 | 0.0 | 3.2 | 0.00 | 2.03 | 0.71 | 81 | 1015.6 |
| 20260505110236 | 11 | 222 | 0.0 | 3.2 | 0.00 | 2.03 | 0.71 | 82 | 1015.6 |
| 20260505110157 | 11 | 223 | 0.0 | 3.2 | 0.00 | 2.03 | 0.71 | 82 | 1015.6 |
| 20260505102157 | 10 | 140 | 0.0 | 3.2 | 0.03 | 2.03 | 0.71 | 87 | 1015.5 |
| 20260505101736 | 10 | 141 | 0.0 | 4.8 | 0.03 | 2.03 | 0.71 | 87 | 1015.3 |
| 20260505101236 | 10 | 145 | 0.0 | 4.8 | 0.03 | 2.03 | 0.71 | 88 | 1015.6 |
| 20260505101158 | 10 | 141 | 0.0 | 6.4 | 0.03 | 2.03 | 0.71 | 88 | 1015.3 |
| 20260505100740 | 10 | 124 | 0.0 | 6.4 | 0.03 | 2.03 | 0.71 | 88 | 1015.6 |
| 20260505100235 | 10 | 115 | 1.6 | 6.4 | 0.03 | 2.03 | 0.71 | 89 | 1015.6 |
| 20260505100157 | 10 | 116 | 1.6 | 6.4 | 0.03 | 2.03 | 0.71 | 89 | 1015.6 |
| 20260505095737 | 10 | 130 | 1.6 | 6.4 | 0.03 | 2.03 | 0.71 | 89 | 1015.6 |
| 20260505095504 | 10 | 139 | 1.6 | 6.4 | 0.03 | 2.03 | 0.71 | 88 | 1015.6 |
| 20260505095158 | 10 | 139 | 1.6 | 6.4 | 0.03 | 2.03 | 0.71 | 88 | 1015.6 |
| 20260505094734 | 10 | 141 | 1.6 | 6.4 | 0.03 | 2.03 | 0.71 | 88 | 1015.6 |
| 20260505094234 | 10 | 133 | 1.6 | 6.4 | 0.03 | 2.03 | 0.71 | 88 | 1015.5 |
| 20260505094157 | 10 | 129 | 1.6 | 6.4 | 0.03 | 2.03 | 0.71 | 88 | 1015.3 |
| 20260505094002 | 10 | 132 | 1.6 | 6.4 | 0.00 | 2.03 | 0.71 | 88 | 1015.5 |
| 20260505093231 | 10 | 39 | 1.6 | 6.4 | 0.00 | 2.03 | 0.71 | 88 | 1015.5 |
| 20260505093156 | 10 | 37 | 1.6 | 6.4 | 0.00 | 2.03 | 0.71 | 87 | 1015.3 |
| 20260505092732 | 10 | 65 | 1.6 | 4.8 | 0.00 | 2.03 | 0.71 | 87 | 1015.5 |
| 20260505092231 | 10 | 129 | 1.6 | 4.8 | 0.00 | 2.03 | 0.71 | 85 | 1015.2 |
| 20260505092157 | 10 | 130 | 1.6 | 4.8 | 0.00 | 2.03 | 0.71 | 85 | 1015.3 |
| 20260505091731 | 10 | 187 | 1.6 | 4.8 | 0.00 | 2.03 | 0.71 | 85 | 1015.2 |
| 20260505091230 | 10 | 258 | 0.0 | 4.8 | 0.00 | 2.03 | 0.71 | 85 | 1015.2 |
| 20260505091157 | 10 | 261 | 0.0 | 4.8 | 0.00 | 2.03 | 0.71 | 85 | 1015.1 |
| 20260505090731 | 10 | 258 | 0.0 | 4.8 | 0.00 | 2.03 | 0.71 | 85 | 1015.2 |
| 20260505090229 | 10 | 251 | 1.6 | 4.8 | 0.00 | 2.03 | 0.71 | 85 | 1015.2 |
| 20260505090158 | 10 | 250 | 1.6 | 4.8 | 0.00 | 2.03 | 0.71 | 85 | 1015.2 |
| 20260505085728 | 10 | 247 | 1.6 | 4.8 | 0.00 | 2.03 | 0.71 | 85 | 1015.1 |
| 20260505085228 | 10 | 253 | 1.6 | 8.0 | 0.00 | 2.03 | 0.71 | 84 | 1015.1 |
| 20260505085157 | 10 | 254 | 1.6 | 8.0 | 0.00 | 2.03 | 0.71 | 84 | 1015.1 |
| 20260505084957 | 10 | 263 | 0.0 | 8.0 | 0.00 | 2.03 | 0.71 | 85 | 1015.0 |
| 20260505084228 | 9 | 264 | 1.6 | 9.7 | 0.00 | 2.03 | 0.71 | 85 | 1014.9 |
| 20260505084157 | 9 | 263 | 1.6 | 9.7 | 0.00 | 2.03 | 0.71 | 85 | 1014.9 |
| 20260505083726 | 9 | 263 | 1.6 | 9.7 | 0.00 | 2.03 | 0.71 | 84 | 1014.8 |
| 20260505083226 | 9 | 262 | 3.2 | 9.7 | 0.00 | 2.03 | 0.71 | 85 | 1014.8 |
| 20260505083156 | 9 | 262 | 3.2 | 9.7 | 0.00 | 2.03 | 0.71 | 85 | 1014.8 |
| 20260505082726 | 9 | 259 | 4.8 | 9.7 | 0.00 | 2.03 | 0.71 | 84 | 1014.8 |
| 20260505082225 | 9 | 257 | 3.2 | 8.0 | 0.00 | 2.03 | 0.71 | 85 | 1014.8 |
| 20260505082158 | 9 | 256 | 3.2 | 8.0 | 0.00 | 2.03 | 0.71 | 86 | 1014.8 |
| 20260505081726 | 9 | 252 | 1.6 | 8.0 | 0.00 | 2.03 | 0.71 | 86 | 1014.7 |
| 20260505081225 | 9 | 252 | 1.6 | 6.4 | 0.00 | 2.03 | 0.71 | 86 | 1014.7 |
| 20260505081157 | 9 | 252 | 1.6 | 6.4 | 0.00 | 2.03 | 0.71 | 86 | 1014.7 |
| 20260505080726 | 9 | 251 | 3.2 | 6.4 | 0.00 | 2.03 | 0.71 | 87 | 1014.8 |
| 20260505080226 | 9 | 256 | 3.2 | 8.0 | 0.00 | 2.03 | 0.71 | 87 | 1014.8 |
| 20260505080157 | 9 | 257 | 3.2 | 8.0 | 0.00 | 2.03 | 0.71 | 87 | 1014.9 |
| 20260505075727 | 9 | 267 | 3.2 | 9.7 | 0.00 | 2.03 | 0.71 | 87 | 1014.7 |
| 20260505075723 | 9 | 259 | 3.2 | 9.7 | 0.00 | 2.03 | 0.71 | 87 | 1014.7 |
| 20260505075157 | 9 | 258 | 3.2 | 9.7 | 0.00 | 2.03 | 0.71 | 87 | 1014.7 |
| 20260505074726 | 9 | 249 | 4.8 | 11.3 | 0.00 | 2.03 | 0.71 | 87 | 1014.7 |
| 20260505074226 | 9 | 257 | 3.2 | 11.3 | 0.00 | 2.03 | 0.71 | 86 | 1014.8 |
| 20260505074157 | 9 | 259 | 3.2 | 11.3 | 0.00 | 2.03 | 0.71 | 86 | 1014.8 |
| 20260505073725 | 9 | 268 | 3.2 | 11.3 | 0.00 | 2.03 | 0.71 | 85 | 1014.6 |
| 20260505073226 | 8 | 266 | 3.2 | 11.3 | 0.00 | 2.03 | 0.71 | 84 | 1014.7 |
| 20260505073156 | 8 | 267 | 3.2 | 11.3 | 0.00 | 2.03 | 0.71 | 84 | 1014.7 |
| 20260505072725 | 8 | 272 | 3.2 | 9.7 | 0.00 | 2.03 | 0.71 | 86 | 1014.7 |
| 20260505072226 | 8 | 275 | 3.2 | 8.0 | 0.03 | 2.03 | 0.71 | 86 | 1014.7 |
| 20260505072157 | 8 | 274 | 3.2 | 8.0 | 0.03 | 2.03 | 0.71 | 85 | 1014.7 |
| 20260505071735 | 8 | 273 | 1.6 | 11.3 | 0.03 | 2.03 | 0.71 | 85 | 1014.7 |
| 20260505071730 | 8 | 262 | 1.6 | 9.7 | 0.03 | 2.03 | 0.71 | 85 | 1014.7 |
| 20260505071158 | 8 | 274 | 1.6 | 11.3 | 0.03 | 2.03 | 0.71 | 85 | 1014.6 |
| 20260505070724 | 8 | 285 | 3.2 | 11.3 | 0.03 | 2.03 | 0.71 | 84 | 1014.6 |
| 20260505070224 | 8 | 279 | 3.2 | 11.3 | 0.03 | 2.03 | 0.71 | 83 | 1014.7 |
| 20260505070157 | 8 | 279 | 3.2 | 11.3 | 0.03 | 2.03 | 0.71 | 83 | 1014.7 |
| 20260505065724 | 8 | 289 | 3.2 | 12.9 | 0.03 | 2.03 | 0.71 | 82 | 1014.7 |
| 20260505065225 | 8 | 286 | 1.6 | 12.9 | 0.03 | 2.03 | 0.71 | 84 | 1014.8 |
| 20260505065156 | 8 | 287 | 1.6 | 12.9 | 0.03 | 2.03 | 0.71 | 84 | 1014.8 |
| 20260505064722 | 8 | 278 | 3.2 | 12.9 | 0.03 | 2.03 | 0.71 | 83 | 1014.7 |
| 20260505064220 | 8 | 276 | 6.4 | 12.9 | 0.03 | 2.03 | 0.71 | 83 | 1014.7 |
| 20260505064157 | 8 | 274 | 6.4 | 12.9 | 0.03 | 2.03 | 0.71 | 83 | 1014.7 |
| 20260505063719 | 8 | 263 | 4.8 | 11.3 | 0.03 | 2.03 | 0.71 | 84 | 1014.7 |
| 20260505063220 | 8 | 258 | 3.2 | 8.0 | 0.03 | 2.03 | 0.71 | 87 | 1014.8 |
| 20260505063157 | 8 | 258 | 3.2 | 8.0 | 0.03 | 2.03 | 0.71 | 87 | 1014.8 |
| 20260505062944 | 8 | 260 | 1.6 | 8.0 | 0.03 | 2.03 | 0.71 | 87 | 1014.6 |
| 20260505062216 | 8 | 262 | 0.0 | 6.4 | 0.00 | 2.01 | 0.69 | 88 | 1014.7 |
| 20260505062159 | 8 | 262 | 0.0 | 6.4 | 0.00 | 2.01 | 0.69 | 88 | 1014.8 |
| 20260505061716 | 8 | 270 | 0.0 | 14.5 | 0.00 | 2.01 | 0.69 | 87 | 1014.7 |
| 20260505061216 | 8 | 283 | 1.6 | 14.5 | 0.00 | 2.01 | 0.69 | 86 | 1014.6 |
| 20260505061157 | 8 | 285 | 1.6 | 14.5 | 0.00 | 2.01 | 0.69 | 86 | 1014.6 |
| 20260505060722 | 8 | 287 | 4.8 | 14.5 | 0.00 | 2.01 | 0.69 | 84 | 1014.6 |
| 20260505060717 | 8 | 282 | 3.2 | 14.5 | 0.00 | 2.01 | 0.69 | 85 | 1014.6 |
| 20260505060157 | 8 | 285 | 4.8 | 14.5 | 0.00 | 2.01 | 0.69 | 84 | 1014.6 |
| 20260505055715 | 8 | 295 | 3.2 | 14.5 | 0.00 | 2.01 | 0.69 | 85 | 1014.7 |
| 20260505055215 | 8 | 288 | 6.4 | 14.5 | 0.00 | 2.01 | 0.69 | 84 | 1014.7 |
| 20260505055156 | 8 | 288 | 6.4 | 14.5 | 0.00 | 2.01 | 0.69 | 84 | 1014.7 |
| 20260505054716 | 8 | 280 | 6.4 | 14.5 | 0.00 | 2.01 | 0.69 | 84 | 1014.8 |
| 20260505054216 | 8 | 281 | 4.8 | 12.9 | 0.00 | 2.01 | 0.69 | 84 | 1014.8 |
| 20260505054158 | 8 | 281 | 4.8 | 12.9 | 0.00 | 2.01 | 0.69 | 84 | 1014.8 |
| 20260505053715 | 7 | 295 | 3.2 | 11.3 | 0.03 | 2.01 | 0.69 | 84 | 1014.7 |
| 20260505053215 | 7 | 294 | 4.8 | 11.3 | 0.03 | 2.01 | 0.69 | 85 | 1014.8 |
| 20260505053157 | 7 | 294 | 4.8 | 11.3 | 0.03 | 2.01 | 0.69 | 85 | 1014.8 |
| 20260505052716 | 7 | 276 | 4.8 | 11.3 | 0.05 | 2.01 | 0.69 | 84 | 1014.8 |
| 20260505052216 | 7 | 265 | 4.8 | 11.3 | 0.10 | 2.01 | 0.69 | 84 | 1014.8 |
| 20260505052158 | 7 | 264 | 4.8 | 11.3 | 0.10 | 2.01 | 0.69 | 84 | 1014.8 |
| 20260505051716 | 8 | 259 | 3.2 | 11.3 | 0.13 | 2.01 | 0.69 | 85 | 1014.9 |
| 20260505051505 | 8 | 257 | 3.2 | 11.3 | 0.15 | 2.01 | 0.69 | 85 | 1014.9 |
| 20260505051229 | 8 | 257 | 3.2 | 11.3 | 0.15 | 2.01 | 0.69 | 85 | 1014.9 |
| 20260505050953 | 8 | 258 | 3.2 | 11.3 | 0.15 | 2.01 | 0.69 | 86 | 1015.0 |
| 20260505050157 | 8 | 258 | 3.2 | 11.3 | 0.20 | 2.01 | 0.69 | 86 | 1015.0 |
| 20260505041707 | 8 | 244 | 0.0 | 1.6 | 0.28 | 1.88 | 0.58 | 90 | 1015.3 |
| 20260505041208 | 8 | 244 | 0.0 | 1.6 | 0.28 | 1.85 | 0.53 | 89 | 1015.5 |
| 20260505041156 | 8 | 244 | 0.0 | 1.6 | 0.28 | 1.85 | 0.53 | 89 | 1015.5 |
| 20260505040940 | 8 | 244 | 0.0 | 3.2 | 0.25 | 1.83 | 0.51 | 89 | 1015.3 |
| 20260505040206 | 8 | 249 | 0.0 | 9.7 | 0.25 | 1.80 | 0.48 | 89 | 1015.5 |
| 20260505040153 | 8 | 249 | 0.0 | 9.7 | 0.25 | 1.80 | 0.48 | 89 | 1015.5 |
| 20260505035706 | 8 | 255 | 0.0 | 9.7 | 0.23 | 1.78 | 0.46 | 89 | 1015.5 |
| 20260505035206 | 8 | 254 | 3.2 | 9.7 | 0.23 | 1.75 | 0.43 | 88 | 1015.6 |
| 20260505035152 | 8 | 254 | 3.2 | 9.7 | 0.23 | 1.75 | 0.43 | 88 | 1015.6 |
| 20260505034706 | 8 | 254 | 3.2 | 9.7 | 0.23 | 1.75 | 0.43 | 88 | 1015.6 |
| 20260505034207 | 8 | 255 | 3.2 | 8.0 | 0.23 | 1.70 | 0.38 | 89 | 1015.7 |
| 20260505034152 | 8 | 255 | 3.2 | 8.0 | 0.23 | 1.70 | 0.38 | 89 | 1015.7 |
| 20260505033707 | 8 | 254 | 3.2 | 8.0 | 0.23 | 1.68 | 0.36 | 90 | 1015.8 |
| 20260505033209 | 8 | 252 | 3.2 | 8.0 | 0.23 | 1.65 | 0.33 | 91 | 1015.8 |
| 20260505033152 | 8 | 252 | 3.2 | 8.0 | 0.23 | 1.65 | 0.33 | 91 | 1015.8 |
| 20260505032704 | 8 | 250 | 1.6 | 6.4 | 0.23 | 1.63 | 0.33 | 91 | 1015.8 |
| 20260505032203 | 8 | 250 | 1.6 | 4.8 | 0.23 | 1.63 | 0.30 | 91 | 1015.8 |
| 20260505032151 | 8 | 250 | 1.6 | 4.8 | 0.23 | 1.63 | 0.30 | 91 | 1015.8 |
| 20260505031702 | 8 | 251 | 1.6 | 4.8 | 0.23 | 1.60 | 0.28 | 91 | 1015.8 |
| 20260505031201 | 8 | 248 | 0.0 | 3.2 | 0.23 | 1.57 | 0.25 | 90 | 1015.9 |
| 20260505031151 | 8 | 248 | 0.0 | 3.2 | 0.23 | 1.57 | 0.25 | 90 | 1015.9 |
| 20260505030701 | 8 | 247 | 0.0 | 4.8 | 0.23 | 1.55 | 0.23 | 90 | 1015.9 |
| 20260505030201 | 8 | 250 | 0.0 | 4.8 | 0.23 | 1.55 | 0.23 | 89 | 1015.9 |
| 20260505030152 | 8 | 250 | 0.0 | 4.8 | 0.23 | 1.55 | 0.23 | 89 | 1015.9 |
| 20260505025701 | 8 | 254 | 0.0 | 4.8 | 0.23 | 1.55 | 0.23 | 89 | 1016.0 |
| 20260505025202 | 8 | 253 | 1.6 | 9.7 | 0.20 | 1.52 | 0.20 | 89 | 1015.9 |
| 20260505025152 | 8 | 253 | 1.6 | 9.7 | 0.20 | 1.52 | 0.20 | 89 | 1015.9 |
| 20260505024702 | 8 | 252 | 1.6 | 9.7 | 0.18 | 1.50 | 0.18 | 89 | 1015.9 |
| 20260505024432 | 8 | 254 | 1.6 | 9.7 | 0.15 | 1.47 | 0.15 | 88 | 1015.9 |
| 20260505024152 | 8 | 254 | 1.6 | 9.7 | 0.15 | 1.47 | 0.15 | 88 | 1015.9 |
| 20260505023701 | 8 | 254 | 1.6 | 11.3 | 0.15 | 1.45 | 0.15 | 88 | 1015.9 |
| 20260505023202 | 8 | 250 | 1.6 | 11.3 | 0.10 | 1.42 | 0.13 | 88 | 1015.9 |
| 20260505023152 | 8 | 250 | 1.6 | 11.3 | 0.10 | 1.42 | 0.13 | 88 | 1015.9 |
| 20260505022702 | 8 | 251 | 3.2 | 11.3 | 0.08 | 1.40 | 0.10 | 88 | 1015.8 |
| 20260505022202 | 8 | 255 | 3.2 | 11.3 | 0.05 | 1.37 | 0.05 | 87 | 1015.8 |
| 20260505022152 | 8 | 255 | 3.2 | 11.3 | 0.05 | 1.37 | 0.05 | 87 | 1015.8 |
| 20260505021704 | 9 | 250 | 3.2 | 9.7 | 0.05 | 1.37 | 0.05 | 87 | 1015.9 |
| 20260505021152 | 8 | 249 | 1.6 | 6.4 | 0.05 | 1.37 | 0.05 | 89 | 1015.8 |
| 20260505020928 | 9 | 248 | 1.6 | 6.4 | 0.03 | 1.35 | 0.03 | 89 | 1015.9 |
| 20260505020154 | 9 | 239 | 1.6 | 6.4 | 0.00 | 1.32 | 0.00 | 90 | 1015.9 |
| 20260505015656 | 9 | 231 | 0.0 | 1.6 | 0.00 | 1.32 | 0.00 | 91 | 1015.9 |
| 20260505015153 | 9 | 230 | 0.0 | 0.0 | 0.00 | 1.32 | 0.00 | 91 | 1015.8 |
| 20260505014925 | 9 | 230 | 0.0 | 0.0 | 0.00 | 1.32 | 0.00 | 90 | 1015.7 |
| 20260505014153 | 9 | 230 | 0.0 | 0.0 | 0.00 | 1.32 | 0.00 | 90 | 1015.8 |
| 20260505013656 | 9 | 230 | 0.0 | 0.0 | 0.00 | 1.32 | 0.00 | 90 | 1015.8 |
| 20260505013152 | 9 | 230 | 0.0 | 3.2 | 0.00 | 1.32 | 0.00 | 90 | 1015.7 |
| 20260505012656 | 9 | 230 | 0.0 | 8.0 | 0.00 | 1.32 | 0.00 | 90 | 1015.7 |
| 20260505012151 | 9 | 239 | 0.0 | 8.0 | 0.00 | 1.32 | 0.00 | 90 | 1015.8 |
| 20260505011656 | 9 | 250 | 1.6 | 8.0 | 0.00 | 1.32 | 0.00 | 90 | 1015.9 |
| 20260505011152 | 9 | 250 | 3.2 | 8.0 | 0.00 | 1.32 | 0.00 | 89 | 1016.0 |
| 20260505010656 | 9 | 249 | 1.6 | 4.8 | 0.00 | 1.32 | 0.00 | 90 | 1016.0 |
| 20260505010152 | 9 | 249 | 0.0 | 4.8 | 0.00 | 1.32 | 0.00 | 90 | 1016.1 |
| 20260505005656 | 9 | 249 | 0.0 | 4.8 | 0.00 | 1.32 | 0.00 | 90 | 1016.2 |
| 20260505005152 | 9 | 248 | 0.0 | 6.4 | 0.00 | 1.32 | 0.00 | 90 | 1016.3 |
| 20260505004656 | 9 | 247 | 0.0 | 6.4 | 0.00 | 1.32 | 0.00 | 90 | 1016.4 |
| 20260505004152 | 9 | 247 | 1.6 | 6.4 | 0.00 | 1.32 | 0.00 | 90 | 1016.7 |
| 20260505003656 | 9 | 246 | 1.6 | 6.4 | 0.00 | 1.32 | 0.00 | 89 | 1016.9 |
| 20260505003152 | 9 | 247 | 1.6 | 6.4 | 0.00 | 1.32 | 0.00 | 89 | 1016.9 |
| 20260505002657 | 9 | 250 | 1.6 | 8.0 | 0.00 | 1.32 | 0.00 | 89 | 1017.3 |
| 20260505002151 | 9 | 252 | 1.6 | 8.0 | 0.00 | 1.32 | 0.00 | 89 | 1017.4 |
| 20260505001655 | 9 | 252 | 3.2 | 8.0 | 0.00 | 1.32 | 0.00 | 90 | 1017.6 |
| 20260505001149 | 9 | 249 | 3.2 | 8.0 | 0.00 | 1.32 | 0.00 | 90 | 1017.6 |
| 20260505000656 | 9 | 248 | 1.6 | 6.4 | 0.00 | 1.32 | 0.00 | 90 | 1017.7 |
| 20260505000148 | 9 | 250 | 1.6 | 6.4 | 0.00 | 1.32 | 0.00 | 90 | 1017.8 |
| 20260504235655 | 9 | 252 | 3.2 | 6.4 | 0.00 | 1.32 | 0.00 | 90 | 1017.9 |
| 20260504235148 | 9 | 250 | 3.2 | 6.4 | 0.00 | 1.32 | 0.00 | 91 | 1017.9 |
| 20260504234653 | 9 | 247 | 1.6 | 6.4 | 0.00 | 1.32 | 0.00 | 91 | 1017.9 |
| 20260504234148 | 9 | 249 | 1.6 | 6.4 | 0.00 | 1.32 | 0.00 | 91 | 1018.0 |
| 20260504233923 | 9 | 246 | 1.6 | 6.4 | 0.00 | 1.32 | 0.00 | 91 | 1018.0 |
| 20260504233147 | 9 | 242 | 0.0 | 3.2 | 0.00 | 1.32 | 0.00 | 91 | 1018.1 |
| 20260504232652 | 9 | 239 | 0.0 | 3.2 | 0.00 | 1.32 | 0.00 | 92 | 1018.1 |
| 20260504232148 | 9 | 228 | 0.0 | 3.2 | 0.00 | 1.32 | 0.00 | 92 | 1018.2 |
| 20260504231919 | 9 | 217 | 0.0 | 1.6 | 0.00 | 1.32 | 0.00 | 92 | 1018.3 |
| 20260504231151 | 9 | 228 | 0.0 | 1.6 | 0.00 | 1.32 | 0.00 | 91 | 1018.3 |
| 20260504231147 | 9 | 229 | 0.0 | 1.6 | 0.00 | 1.32 | 0.00 | 91 | 1018.3 |
| 20260504230650 | 9 | 246 | 0.0 | 1.6 | 0.00 | 1.32 | 0.00 | 92 | 1018.4 |
| 20260504230147 | 9 | 250 | 0.0 | 1.6 | 0.00 | 1.32 | 0.00 | 91 | 1018.4 |
| 20260504225650 | 9 | 250 | 0.0 | 3.2 | 0.00 | 1.32 | 0.00 | 91 | 1018.4 |
| 20260504225148 | 9 | 251 | 0.0 | 3.2 | 0.00 | 1.32 | 0.00 | 91 | 1018.4 |
| 20260504224649 | 9 | 249 | 0.0 | 3.2 | 0.00 | 1.32 | 0.00 | 91 | 1018.5 |
| 20260504224147 | 9 | 246 | 0.0 | 3.2 | 0.00 | 1.32 | 0.00 | 92 | 1018.6 |
| 20260504223648 | 9 | 246 | 0.0 | 1.6 | 0.03 | 1.32 | 0.00 | 92 | 1018.6 |
| 20260504223151 | 9 | 246 | 0.0 | 4.8 | 0.03 | 1.32 | 0.00 | 92 | 1018.6 |
| 20260504223147 | 9 | 246 | 0.0 | 4.8 | 0.03 | 1.32 | 0.00 | 92 | 1018.5 |
| 20260504222650 | 9 | 246 | 0.0 | 8.0 | 0.03 | 1.32 | 0.00 | 92 | 1018.7 |
| 20260504222147 | 9 | 246 | 1.6 | 8.0 | 0.05 | 1.32 | 0.00 | 92 | 1018.6 |
| 20260504221646 | 9 | 242 | 3.2 | 9.7 | 0.05 | 1.32 | 0.00 | 92 | 1018.9 |
| 20260504221401 | 9 | 242 | 3.2 | 9.7 | 0.05 | 1.32 | 0.00 | 92 | 1018.9 |
| 20260504220646 | 9 | 244 | 3.2 | 9.7 | 0.08 | 1.32 | 0.00 | 92 | 1019.0 |
| 20260504220401 | 9 | 246 | 3.2 | 9.7 | 0.13 | 1.32 | 0.00 | 91 | 1019.3 |
| 20260504215646 | 9 | 247 | 3.2 | 6.4 | 0.15 | 1.32 | 1.32 | 91 | 1019.3 |
| 20260504215145 | 9 | 247 | 1.6 | 4.8 | 0.15 | 1.32 | 1.32 | 91 | 1019.5 |
| 20260504214646 | 9 | 246 | 1.6 | 4.8 | 0.15 | 1.32 | 1.32 | 91 | 1019.6 |
| 20260504214145 | 9 | 242 | 1.6 | 4.8 | 0.15 | 1.32 | 1.32 | 91 | 1019.7 |
| 20260504213917 | 9 | 238 | 0.0 | 3.2 | 0.15 | 1.30 | 1.30 | 91 | 1019.7 |
| 20260504213144 | 9 | 238 | 0.0 | 3.2 | 0.15 | 1.30 | 1.30 | 91 | 1019.7 |
| 20260504212642 | 9 | 240 | 0.0 | 3.2 | 0.15 | 1.30 | 1.30 | 91 | 1019.8 |
| 20260504212143 | 9 | 243 | 0.0 | 3.2 | 0.15 | 1.27 | 1.27 | 91 | 1019.9 |
| 20260504211641 | 9 | 246 | 0.0 | 4.8 | 0.15 | 1.27 | 1.27 | 91 | 1019.9 |
| 20260504211144 | 9 | 244 | 0.0 | 8.0 | 0.15 | 1.27 | 1.27 | 91 | 1020.0 |
| 20260504210641 | 9 | 242 | 1.6 | 8.0 | 0.15 | 1.24 | 1.24 | 91 | 1020.0 |
| 20260504210357 | 9 | 243 | 3.2 | 8.0 | 0.15 | 1.19 | 1.19 | 91 | 1019.9 |
| 20260504205641 | 9 | 244 | 3.2 | 8.0 | 0.18 | 1.17 | 1.17 | 91 | 1019.9 |
| 20260504205140 | 9 | 244 | 3.2 | 6.4 | 0.20 | 1.17 | 1.17 | 91 | 1019.9 |
| 20260504204915 | 9 | 242 | 3.2 | 6.4 | 0.23 | 1.17 | 1.17 | 91 | 1019.9 |
| 20260504204422 | 9 | 240 | 1.6 | 4.8 | 0.28 | 1.17 | 1.17 | 91 | 1020.0 |
| 20260504204140 | 9 | 240 | 1.6 | 4.8 | 0.28 | 1.17 | 1.17 | 91 | 1020.0 |
| 20260504203651 | 9 | 239 | 0.0 | 3.2 | 0.30 | 1.14 | 1.14 | 91 | 1020.1 |
| 20260504203645 | 9 | 240 | 0.0 | 3.2 | 0.30 | 1.17 | 1.17 | 91 | 1020.0 |
| 20260504203355 | 9 | 239 | 0.0 | 3.2 | 0.30 | 1.14 | 1.14 | 91 | 1020.1 |
| 20260504202641 | 9 | 237 | 0.0 | 1.6 | 0.33 | 1.14 | 1.14 | 91 | 1020.1 |
| 20260504202139 | 9 | 237 | 0.0 | 1.6 | 0.33 | 1.14 | 1.14 | 91 | 1020.1 |
| 20260504201640 | 9 | 236 | 0.0 | 1.6 | 0.33 | 1.12 | 1.12 | 90 | 1020.0 |
| 20260504201417 | 9 | 237 | 0.0 | 3.2 | 0.33 | 1.12 | 1.12 | 91 | 1020.1 |
| 20260504201139 | 9 | 237 | 0.0 | 3.2 | 0.33 | 1.12 | 1.12 | 91 | 1020.0 |
| 20260504200640 | 9 | 237 | 0.0 | 3.2 | 0.30 | 1.09 | 1.09 | 91 | 1020.1 |
| 20260504200138 | 9 | 237 | 0.0 | 3.2 | 0.28 | 1.07 | 1.07 | 91 | 1020.1 |
| 20260504195636 | 9 | 237 | 0.0 | 3.2 | 0.23 | 0.99 | 1.02 | 91 | 1020.1 |
| 20260504195136 | 10 | 237 | 0.0 | 1.6 | 0.23 | 0.99 | 0.99 | 91 | 1020.0 |
| 20260504194636 | 10 | 237 | 0.0 | 1.6 | 0.18 | 0.94 | 0.94 | 91 | 1019.9 |
| 20260504194137 | 10 | 237 | 0.0 | 1.6 | 0.13 | 0.89 | 0.89 | 91 | 1020.0 |
| 20260504193908 | 10 | 237 | 0.0 | 0.0 | 0.13 | 0.86 | 0.86 | 91 | 1019.9 |
| 20260504193139 | 10 | 237 | 0.0 | 1.6 | 0.10 | 0.84 | 0.84 | 91 | 1019.8 |
| 20260504192637 | 10 | 237 | 0.0 | 1.6 | 0.10 | 0.81 | 0.81 | 90 | 1019.6 |
| 20260504192138 | 10 | 237 | 0.0 | 1.6 | 0.10 | 0.79 | 0.79 | 90 | 1019.6 |
| 20260504191636 | 10 | 238 | 0.0 | 4.8 | 0.10 | 0.79 | 0.79 | 90 | 1019.6 |
| 20260504191137 | 10 | 237 | 0.0 | 4.8 | 0.15 | 0.79 | 0.79 | 90 | 1019.6 |
| 20260504190636 | 10 | 239 | 1.6 | 4.8 | 0.18 | 0.79 | 0.79 | 90 | 1019.5 |
| 20260504190348 | 10 | 241 | 1.6 | 4.8 | 0.20 | 0.79 | 0.79 | 90 | 1019.6 |
| 20260504185909 | 10 | 241 | 1.6 | 3.2 | 0.23 | 0.79 | 0.79 | 90 | 1019.5 |
| 20260504185137 | 10 | 239 | 1.6 | 3.2 | 0.23 | 0.76 | 0.76 | 90 | 1019.4 |
| 20260504184636 | 10 | 239 | 0.0 | 3.2 | 0.25 | 0.76 | 0.76 | 90 | 1019.4 |
| 20260504184137 | 10 | 239 | 0.0 | 3.2 | 0.28 | 0.76 | 0.76 | 89 | 1019.5 |
| 20260504183635 | 10 | 239 | 0.0 | 3.2 | 0.28 | 0.74 | 0.76 | 89 | 1019.6 |
| 20260504183134 | 10 | 239 | 0.0 | 3.2 | 0.30 | 0.74 | 0.74 | 89 | 1019.6 |
| 20260504182631 | 10 | 239 | 0.0 | 3.2 | 0.30 | 0.71 | 0.71 | 88 | 1019.6 |
| 20260504182138 | 10 | 240 | 0.0 | 3.2 | 0.30 | 0.71 | 0.71 | 89 | 1019.6 |
| 20260504182132 | 10 | 240 | 0.0 | 3.2 | 0.30 | 0.71 | 0.71 | 89 | 1019.7 |
| 20260504181631 | 10 | 241 | 0.0 | 3.2 | 0.33 | 0.69 | 0.69 | 88 | 1019.7 |
| 20260504181137 | 10 | 241 | 0.0 | 4.8 | 0.30 | 0.64 | 0.64 | 88 | 1019.7 |
| 20260504181131 | 10 | 241 | 0.0 | 4.8 | 0.30 | 0.64 | 0.64 | 88 | 1019.8 |
| 20260504180629 | 10 | 241 | 0.0 | 4.8 | 0.30 | 0.61 | 0.61 | 88 | 1019.7 |
| 20260504180130 | 10 | 241 | 0.0 | 6.4 | 0.33 | 0.58 | 0.58 | 88 | 1019.7 |
| 20260504175629 | 10 | 241 | 1.6 | 6.4 | 0.33 | 0.56 | 0.56 | 88 | 1019.8 |
| 20260504175130 | 10 | 241 | 1.6 | 6.4 | 0.33 | 0.53 | 0.53 | 88 | 1019.7 |
| 20260504174630 | 10 | 242 | 1.6 | 6.4 | 0.33 | 0.51 | 0.51 | 88 | 1019.7 |
| 20260504174128 | 10 | 242 | 1.6 | 6.4 | 0.33 | 0.48 | 0.48 | 87 | 1019.7 |
| 20260504173627 | 10 | 241 | 1.6 | 4.8 | 0.30 | 0.46 | 0.46 | 88 | 1019.7 |
| 20260504173127 | 10 | 241 | 1.6 | 4.8 | 0.30 | 0.43 | 0.43 | 87 | 1019.5 |
| 20260504172626 | 10 | 241 | 1.6 | 4.8 | 0.28 | 0.43 | 0.43 | 87 | 1019.5 |
| 20260504172130 | 11 | 240 | 1.6 | 4.8 | 0.25 | 0.41 | 0.41 | 87 | 1019.7 |
| 20260504171857 | 11 | 239 | 0.0 | 4.8 | 0.23 | 0.36 | 0.38 | 88 | 1019.7 |
| 20260504171125 | 11 | 238 | 0.0 | 4.8 | 0.23 | 0.33 | 0.33 | 88 | 1019.7 |
| 20260504170625 | 11 | 239 | 1.6 | 4.8 | 0.18 | 0.30 | 0.30 | 87 | 1019.7 |
| 20260504170134 | 11 | 239 | 1.6 | 4.8 | 0.15 | 0.25 | 0.25 | 86 | 1019.7 |
| 20260504170126 | 11 | 239 | 1.6 | 4.8 | 0.15 | 0.25 | 0.25 | 86 | 1019.6 |
| 20260504160133 | 11 | 239 | 1.6 | 4.8 | 0.00 | 0.13 | 0.13 | 85 | 1019.3 |
| 20260504160116 | 11 | 238 | 1.6 | 4.8 | 0.00 | 0.13 | 0.13 | 85 | 1019.2 |
| 20260504151116 | 12 | 228 | 0.0 | 3.2 | 0.05 | 0.13 | 0.13 | 85 | 1019.2 |
| 20260504150616 | 12 | 233 | 0.0 | 3.2 | 0.05 | 0.13 | 0.13 | 86 | 1019.2 |
| 20260504150358 | 12 | 237 | 0.0 | 3.2 | 0.05 | 0.13 | 0.13 | 85 | 1019.2 |
| 20260504150337 | 12 | 237 | 0.0 | 3.2 | 0.05 | 0.13 | 0.13 | 85 | 1019.3 |
| 20260504141130 | 12 | 236 | 1.6 | 6.4 | 0.05 | 0.08 | 0.08 | 85 | 1019.5 |
| 20260504141115 | 12 | 236 | 1.6 | 6.4 | 0.05 | 0.08 | 0.08 | 85 | 1019.4 |
| 20260504140616 | 12 | 235 | 1.6 | 6.4 | 0.05 | 0.08 | 0.08 | 85 | 1019.5 |
| 20260504140115 | 12 | 234 | 0.0 | 3.2 | 0.05 | 0.08 | 0.08 | 86 | 1019.6 |